Terminal Aerodrome Forecast
Issued by NWS

Home | Current Version | Previous Version | Graphics & Text | Print | Product List | Glossary On
Versions: 1 2 3 4 5 6 7 8 9 10 11 12 13 14 15 16 17 18 19 20 21 22 23 24 25 26 27 28
000
FTUS43 KABR 052030 AAC
TAFMBG
TAF AMD
KMBG 052030Z 0521/0618 31020G27KT 1/4SM SN BLSN BKN009 OVC015
     FM052115 31027G38KT 3SM BLSN BR VCSH OVC015
     FM052200 30028G40KT P6SM OVC035
     FM060000 30027G38KT P6SM BKN035
     FM061000 30021G30KT P6SM BKN040=

USA.gov is the U.S. government's official web portal to all federal, state and local government web resources and services.